DLH1TP EKCH-EDDH

Flight info

Callsign DLH1TP
Flight time 0h 39m
Altitude 24000
Route NEXEN T503 MICOS N850 BOGMU BOGMU3P
Aircraft A320/M-SDE3FGHIRWY/LB1

Departure

Time 2026-04-24 19:16
Airport Copenhagen Kastrup Airport (EKCH)

Arrival

Time 2026-04-24 19:55
Airport Hamburg Helmut Schmidt Airport (EDDH)
Time Latitude Longitude Altitude Speed Heading
2026-04-24 18:54 55.62721 12.64092 24 ft 0 kts 33°
2026-04-24 19:01 55.62713 12.64083 26 ft 4 kts 33°
2026-04-24 19:01 55.62691 12.64057 28 ft 4 kts 30°
2026-04-24 19:02 55.62676 12.64044 29 ft 4 kts
2026-04-24 19:02 55.62652 12.64062 26 ft 1 kts 303°
2026-04-24 19:02 55.62663 12.64033 27 ft 4 kts 303°
2026-04-24 19:02 55.62670 12.64014 27 ft 3 kts 303°
2026-04-24 19:07 55.62680 12.63987 25 ft 6 kts 303°
2026-04-24 19:07 55.62699 12.63935 25 ft 9 kts 303°
2026-04-24 19:07 55.62639 12.63898 24 ft 16 kts 125°
2026-04-24 19:08 55.62569 12.64086 24 ft 21 kts 123°
2026-04-24 19:08 55.62487 12.64304 24 ft 22 kts 125°
2026-04-24 19:08 55.62395 12.64519 26 ft 22 kts 123°
2026-04-24 19:08 55.62319 12.64730 24 ft 13 kts 123°
2026-04-24 19:09 55.62254 12.64800 24 ft 8 kts 179°
2026-04-24 19:09 55.62212 12.64772 24 ft 6 kts 212°
2026-04-24 19:09 55.62175 12.64729 24 ft 10 kts 213°
2026-04-24 19:09 55.62110 12.64653 24 ft 11 kts 213°
2026-04-24 19:10 55.62044 12.64577 24 ft 11 kts 213°
2026-04-24 19:10 55.61965 12.64504 26 ft 16 kts 195°
2026-04-24 19:10 55.61835 12.64529 24 ft 21 kts 169°
2026-04-24 19:10 55.61688 12.64561 24 ft 21 kts 192°
2026-04-24 19:11 55.61558 12.64427 24 ft 22 kts 213°
2026-04-24 19:11 55.61423 12.64273 26 ft 24 kts 213°
2026-04-24 19:11 55.61281 12.64109 24 ft 25 kts 213°
2026-04-24 19:11 55.61132 12.63937 24 ft 26 kts 213°
2026-04-24 19:12 55.61002 12.63788 24 ft 18 kts 212°
2026-04-24 19:12 55.60893 12.63662 25 ft 19 kts 213°
2026-04-24 19:12 55.60823 12.63591 24 ft 10 kts 194°
2026-04-24 19:12 55.60771 12.63633 24 ft 8 kts 136°
2026-04-24 19:13 55.60749 12.63677 24 ft 5 kts 131°
2026-04-24 19:13 55.60731 12.63713 24 ft 7 kts 131°
2026-04-24 19:13 55.60681 12.63816 25 ft 14 kts 127°
2026-04-24 19:13 55.60700 12.63905 27 ft 1 kts 42°
2026-04-24 19:15 55.60775 12.64022 27 ft 49 kts 41°
2026-04-24 19:15 55.61220 12.64709 25 ft 117 kts 41°
2026-04-24 19:15 55.61975 12.65871 62 ft 164 kts 41°
2026-04-24 19:16 55.63666 12.68515 1349 ft 165 kts 37°
2026-04-24 19:16 55.64584 12.69931 1685 ft 186 kts 36°
2026-04-24 19:16 55.65627 12.71517 1972 ft 209 kts 35°
2026-04-24 19:17 55.66687 12.73480 2289 ft 236 kts 57°
2026-04-24 19:17 55.67133 12.76359 2721 ft 261 kts 88°
2026-04-24 19:17 55.66694 12.79574 3334 ft 278 kts 118°
2026-04-24 19:17 55.65393 12.82173 4188 ft 283 kts 147°
2026-04-24 19:18 55.63583 12.83481 5052 ft 284 kts 171°
2026-04-24 19:18 55.61620 12.83601 5844 ft 284 kts 194°
2026-04-24 19:18 55.59788 12.82398 6590 ft 282 kts 219°
2026-04-24 19:18 55.58271 12.80287 7359 ft 283 kts 225°
2026-04-24 19:19 55.56729 12.78010 8199 ft 286 kts 225°
2026-04-24 19:19 55.55214 12.75768 9014 ft 290 kts 226°
2026-04-24 19:19 55.53633 12.73435 9833 ft 294 kts 226°
2026-04-24 19:19 55.52039 12.71088 10348 ft 308 kts 226°
2026-04-24 19:20 55.50333 12.68567 10580 ft 332 kts 225°
2026-04-24 19:20 55.48508 12.65886 10946 ft 347 kts 225°
2026-04-24 19:20 55.46653 12.63194 11591 ft 353 kts 225°
2026-04-24 19:20 55.44742 12.60438 12318 ft 357 kts 225°
2026-04-24 19:21 55.42811 12.57651 13039 ft 360 kts 225°
2026-04-24 19:21 55.40868 12.54838 13750 ft 364 kts 226°
2026-04-24 19:21 55.38907 12.51993 14383 ft 367 kts 226°
2026-04-24 19:21 55.36932 12.49129 15018 ft 370 kts 226°
2026-04-24 19:22 55.35586 12.47185 15456 ft 372 kts 226°
2026-04-24 19:22 55.32926 12.43354 16288 ft 375 kts 226°
2026-04-24 19:22 55.30902 12.40444 16916 ft 378 kts 226°
2026-04-24 19:22 55.28864 12.37515 17534 ft 380 kts 225°
2026-04-24 19:23 55.26799 12.34546 18162 ft 383 kts 226°
2026-04-24 19:23 55.24740 12.31582 18707 ft 386 kts 226°
2026-04-24 19:23 55.22656 12.28585 19230 ft 389 kts 225°
2026-04-24 19:23 55.20553 12.25566 19758 ft 392 kts 225°
2026-04-24 19:24 55.18434 12.22527 20282 ft 395 kts 225°
2026-04-24 19:24 55.16302 12.19473 20793 ft 399 kts 225°
2026-04-24 19:24 55.14143 12.16392 21308 ft 402 kts 225°
2026-04-24 19:24 55.11966 12.13297 21810 ft 404 kts 225°
2026-04-24 19:25 55.09775 12.10188 22313 ft 407 kts 225°
2026-04-24 19:25 55.07567 12.07055 22787 ft 411 kts 224°
2026-04-24 19:25 55.06066 12.04930 22950 ft 413 kts 224°
2026-04-24 19:25 55.03109 12.00756 23013 ft 413 kts 224°
2026-04-24 19:26 55.01603 11.98632 23017 ft 412 kts 224°
2026-04-24 19:26 54.99374 11.95487 23014 ft 412 kts 224°
2026-04-24 19:26 54.97147 11.92346 23019 ft 412 kts 224°
2026-04-24 19:26 54.94922 11.89212 23017 ft 412 kts 224°
2026-04-24 19:27 54.92724 11.86124 23015 ft 412 kts 224°
2026-04-24 19:27 54.90498 11.82996 23019 ft 412 kts 224°
2026-04-24 19:27 54.88264 11.79866 23027 ft 412 kts 224°
2026-04-24 19:27 54.86034 11.76750 23027 ft 412 kts 224°
2026-04-24 19:28 54.83801 11.73633 23024 ft 412 kts 224°
2026-04-24 19:28 54.81560 11.70505 23027 ft 414 kts 224°
2026-04-24 19:28 54.79318 11.67379 23035 ft 414 kts 224°
2026-04-24 19:28 54.77079 11.64258 23035 ft 414 kts 224°
2026-04-24 19:29 54.72581 11.58005 23035 ft 414 kts 224°
2026-04-24 19:29 54.70333 11.54888 23023 ft 414 kts 223°
2026-04-24 19:29 54.68086 11.51776 23041 ft 414 kts 223°
2026-04-24 19:30 54.65835 11.48661 23046 ft 414 kts 223°
2026-04-24 19:30 54.63585 11.45553 23048 ft 414 kts 223°
2026-04-24 19:30 54.61332 11.42455 23057 ft 414 kts 223°
2026-04-24 19:30 54.59077 11.39358 23058 ft 414 kts 223°
2026-04-24 19:31 54.56831 11.36281 22802 ft 409 kts 223°
2026-04-24 19:31 54.54619 11.33256 22333 ft 403 kts 223°
2026-04-24 19:31 54.52435 11.30273 21884 ft 398 kts 223°
2026-04-24 19:31 54.50283 11.27333 21444 ft 393 kts 223°
2026-04-24 19:32 54.48153 11.24427 20988 ft 388 kts 223°
2026-04-24 19:32 54.46049 11.21557 20562 ft 384 kts 223°
2026-04-24 19:32 54.43970 11.18724 20140 ft 379 kts 223°
2026-04-24 19:32 54.41916 11.15923 19746 ft 375 kts 223°
2026-04-24 19:33 54.39881 11.13154 19335 ft 371 kts 223°
2026-04-24 19:33 54.37868 11.10425 18966 ft 366 kts 223°
2026-04-24 19:33 54.35882 11.07744 18617 ft 361 kts 223°
2026-04-24 19:33 54.33919 11.05099 18260 ft 357 kts 223°
2026-04-24 19:34 54.31984 11.02489 17852 ft 352 kts 224°
2026-04-24 19:34 54.30214 10.99671 17455 ft 343 kts 233°
2026-04-24 19:34 54.28741 10.96516 17061 ft 337 kts 238°
2026-04-24 19:34 54.27322 10.93335 16674 ft 336 kts 238°
2026-04-24 19:35 54.25902 10.90176 16287 ft 334 kts 238°
2026-04-24 19:35 54.24486 10.87038 15907 ft 333 kts 237°
2026-04-24 19:35 54.23074 10.83910 15538 ft 332 kts 237°
2026-04-24 19:35 54.21666 10.80797 15169 ft 330 kts 237°
2026-04-24 19:36 54.20263 10.77701 14807 ft 329 kts 237°
2026-04-24 19:36 54.18864 10.74622 14448 ft 327 kts 238°
2026-04-24 19:36 54.17488 10.71598 14099 ft 326 kts 238°
2026-04-24 19:36 54.16100 10.68549 13730 ft 325 kts 238°
2026-04-24 19:37 54.14723 10.65524 13335 ft 322 kts 238°
2026-04-24 19:37 54.13350 10.62510 12946 ft 321 kts 238°
2026-04-24 19:37 54.11982 10.59508 12551 ft 320 kts 238°
2026-04-24 19:37 54.10624 10.56535 12169 ft 317 kts 238°
2026-04-24 19:38 54.09286 10.53619 11781 ft 305 kts 238°
2026-04-24 19:38 54.08004 10.50837 11418 ft 295 kts 238°
2026-04-24 19:38 54.06781 10.48075 11138 ft 283 kts 243°
2026-04-24 19:38 54.05753 10.45380 11118 ft 262 kts 244°
2026-04-24 19:39 54.04790 10.42807 11117 ft 256 kts 244°
2026-04-24 19:39 54.03838 10.40259 11114 ft 255 kts 244°
2026-04-24 19:39 54.02890 10.37713 11118 ft 255 kts 244°
2026-04-24 19:39 54.01940 10.35165 11119 ft 255 kts 244°
2026-04-24 19:40 54.00992 10.32620 11122 ft 255 kts 244°
2026-04-24 19:40 54.00045 10.30077 11130 ft 255 kts 244°
2026-04-24 19:40 53.99095 10.27530 11130 ft 255 kts 244°
2026-04-24 19:40 53.98147 10.24991 11130 ft 255 kts 244°
2026-04-24 19:41 53.97197 10.22448 11127 ft 255 kts 244°
2026-04-24 19:41 53.96248 10.19909 11127 ft 254 kts 244°
2026-04-24 19:41 53.95300 10.17375 11130 ft 255 kts 244°
2026-04-24 19:41 53.94350 10.14836 11129 ft 255 kts 244°
2026-04-24 19:42 53.93398 10.12293 11132 ft 255 kts 244°
2026-04-24 19:42 53.92445 10.09755 11138 ft 255 kts 244°
2026-04-24 19:42 53.91501 10.07234 10881 ft 257 kts 244°
2026-04-24 19:42 53.90533 10.04657 10589 ft 255 kts 244°
2026-04-24 19:43 53.89595 10.02171 10305 ft 253 kts 244°
2026-04-24 19:43 53.88645 9.99662 10016 ft 252 kts 244°
2026-04-24 19:43 53.87699 9.97171 9703 ft 251 kts 244°
2026-04-24 19:43 53.86755 9.94683 9381 ft 250 kts 244°
2026-04-24 19:44 53.85818 9.92202 9050 ft 249 kts 244°
2026-04-24 19:44 53.84887 9.89728 8714 ft 248 kts 244°
2026-04-24 19:44 53.84219 9.87128 8383 ft 234 kts 269°
2026-04-24 19:44 53.84418 9.84518 8059 ft 221 kts 300°
2026-04-24 19:45 53.85414 9.82626 7735 ft 217 kts 331°
2026-04-24 19:45 53.86872 9.82051 7421 ft 222 kts
2026-04-24 19:45 53.88327 9.83005 7096 ft 234 kts 34°
2026-04-24 19:45 53.89304 9.85260 6777 ft 247 kts 65°
2026-04-24 19:46 53.89469 9.88189 6463 ft 257 kts 96°
2026-04-24 19:46 53.89035 9.91153 6128 ft 261 kts 103°
2026-04-24 19:46 53.88500 9.94083 5797 ft 260 kts 104°
2026-04-24 19:46 53.87953 9.96996 5470 ft 259 kts 104°
2026-04-24 19:47 53.87404 9.99892 5144 ft 258 kts 104°
2026-04-24 19:47 53.86851 10.02788 4810 ft 257 kts 104°
2026-04-24 19:47 53.86299 10.05656 4473 ft 256 kts 104°
2026-04-24 19:47 53.85750 10.08505 4184 ft 253 kts 101°
2026-04-24 19:48 53.85382 10.11388 4008 ft 250 kts 95°
2026-04-24 19:48 53.85089 10.14287 3979 ft 250 kts 94°
2026-04-24 19:48 53.84523 10.20091 3980 ft 250 kts 94°
2026-04-24 19:49 53.83098 10.25294 3981 ft 240 kts 123°
2026-04-24 19:49 53.80892 10.29412 3945 ft 238 kts 154°
2026-04-24 19:50 53.76913 10.27145 3030 ft 212 kts 238°
2026-04-24 19:50 53.75984 10.25216 2977 ft 213 kts 238°
2026-04-24 19:51 53.74097 10.21342 2998 ft 213 kts 238°
2026-04-24 19:51 53.73147 10.19400 2961 ft 214 kts 237°
2026-04-24 19:52 53.71274 10.15581 2485 ft 203 kts 237°
2026-04-24 19:52 53.70403 10.13808 2215 ft 190 kts 237°
2026-04-24 19:52 53.69589 10.12151 1960 ft 177 kts 238°
2026-04-24 19:52 53.68827 10.10599 1728 ft 166 kts 238°
2026-04-24 19:53 53.68119 10.09159 1497 ft 154 kts 238°
2026-04-24 19:53 53.67457 10.07813 1301 ft 142 kts 238°
2026-04-24 19:53 53.66240 10.05334 908 ft 133 kts 237°
2026-04-24 19:54 53.65653 10.04139 722 ft 131 kts 237°
2026-04-24 19:54 53.65069 10.02953 542 ft 131 kts 235°
2026-04-24 19:54 53.64494 10.01786 376 ft 128 kts 237°
2026-04-24 19:54 53.63926 10.00630 204 ft 128 kts 236°
2026-04-24 19:55 53.63548 9.99870 87 ft 128 kts 236°
2026-04-24 19:55 53.62911 9.98556 51 ft 79 kts 228°
2026-04-24 19:55 53.62660 9.98058 52 ft 42 kts 230°
2026-04-24 19:55 53.62519 9.97799 51 ft 18 kts 208°
2026-04-24 19:56 53.62442 9.97826 50 ft 8 kts 140°
2026-04-24 19:56 53.62429 9.97956 51 ft 15 kts 78°
2026-04-24 19:56 53.62479 9.98132 51 ft 17 kts 53°
2026-04-24 19:56 53.62552 9.98283 51 ft 16 kts 50°
2026-04-24 19:57 53.62620 9.98417 51 ft 14 kts 49°
2026-04-24 19:57 53.62683 9.98540 51 ft 13 kts 50°
2026-04-24 19:57 53.62738 9.98654 51 ft 12 kts 51°
2026-04-24 19:57 53.62789 9.98759 51 ft 12 kts 51°
2026-04-24 19:58 53.62852 9.98885 51 ft 16 kts 49°
2026-04-24 19:58 53.62936 9.99051 51 ft 20 kts 51°
2026-04-24 19:58 53.63021 9.99227 51 ft 18 kts 52°
2026-04-24 19:58 53.63067 9.99330 51 ft 4 kts 54°
2026-04-24 19:59 53.63082 9.99365 51 ft 3 kts 54°
2026-04-24 19:59 53.63104 9.99416 52 ft 10 kts 54°
2026-04-24 19:59 53.63168 9.99561 51 ft 18 kts 53°
2026-04-24 19:59 53.63214 9.99657 51 ft 1 kts 49°
2026-04-24 20:00 53.63216 9.99661 51 ft 0 kts 49°
2026-04-24 20:00 53.63220 9.99669 51 ft 4 kts 49°
2026-04-24 20:00 53.63251 9.99725 51 ft 7 kts 45°
2026-04-24 20:00 53.63281 9.99776 51 ft 6 kts 45°
2026-04-24 20:01 53.63307 9.99821 51 ft 5 kts 46°
2026-04-24 20:01 53.63329 9.99863 51 ft 6 kts 48°
2026-04-24 20:01 53.63366 9.99942 51 ft 11 kts 53°
2026-04-24 20:01 53.63418 10.00048 51 ft 11 kts 52°
2026-04-24 20:02 53.63425 10.00126 51 ft 10 kts 108°
2026-04-24 20:02 53.63366 10.00222 51 ft 8 kts 167°
2026-04-24 20:02 53.63313 10.00232 51 ft 7 kts 175°
2026-04-24 20:02 53.63264 10.00239 51 ft 7 kts 175°
2026-04-24 20:03 53.63244 10.00287 51 ft 5 kts 96°
2026-04-24 20:03 53.63245 10.00337 51 ft 4 kts 87°
2026-04-24 20:03 53.63245 10.00353 51 ft 0 kts 87°